Weather History for Grand Canyon, AZ

Change the Weather History Date:

Friday, March 21, 2014

  Actual Average Record
Temperature  
Mean Temperature 42 °F -  
Max Temperature 62 °F 55 °F 75 °F (2004)
Min Temperature 21 °F 21 °F 12 °F (1982)
Degree Days  
Heating Degree Days 24    
Moisture  
Dew Point 6 °F    
Average Humidity 30    
Maximum Humidity 60    
Minimum Humidity 9    
Precipitation  
Precipitation 0.00 in - - ()
Sea Level Pressure  
Sea Level Pressure 29.94 in    
Wind  
Wind Speed 4 mph (WSW)    
Max Wind Speed 16 mph    
Max Gust Speed 30 mph    
Visibility 10 miles    
Events      
Averages and records for this station are not official NWS values.
T = Trace of Precipitation, MM = Missing Value Source: NWS Daily Summary

Daily Weather History Graph

Daily Weather History Graph

Search for Another Location

Airport:

Trip Planner

Search our weather history database for the weather conditions in past years. The results will help you decide how hot, cold, wet, or windy it might be!

Date:

Astronomy

Mar. 21, 2014 Rise Set
Actual Time 6:30 AM MST 6:41 PM MST
Civil Twilight 6:05 AM MST 7:06 PM MST
Nautical Twilight 5:35 AM MST 7:36 PM MST
Astronomical Twilight 5:05 AM MST 8:07 PM MST
Moon 11:56 PM MST (3/21) 9:34 AM MST (3/21)
Length of Visible Light 13h 01m
Length of Day
12h 10m
Waning Gibbous, 74% of the Moon is Illuminated
Mar 21
Waning Gibbous
Mar 23
Last Quarter
Mar 30
New
Apr 7
First Quarter
Apr 15
Full

Hourly Weather History & Observations

Time (MST) Temp. Windchill Dew Point Humidity Pressure Visibility Wind Dir Wind Speed Gust Speed Precip Events Conditions
12:54 AM 27.0 °F - 7.0 °F 43% 29.96 in 10.0 mi Calm Calm - N/A   Unknown
1:54 AM 26.1 °F - 8.1 °F 47% 29.95 in 10.0 mi Calm Calm - N/A   Clear
2:54 AM 25.0 °F - 8.1 °F 49% 29.93 in 10.0 mi Calm Calm - N/A   Unknown
3:54 AM 26.1 °F - 9.0 °F 49% 29.91 in 10.0 mi Calm Calm - N/A   Unknown
4:54 AM 21.9 °F - 8.1 °F 55% 29.93 in 10.0 mi Calm Calm - N/A   Clear
5:54 AM 21.9 °F - 8.1 °F 55% 29.94 in 10.0 mi Calm Calm - N/A   Clear
6:54 AM 21.0 °F - 9.0 °F 60% 30.00 in 10.0 mi Calm Calm - N/A   Clear
7:54 AM 32.0 °F - 10.0 °F 40% 30.01 in 10.0 mi Calm Calm - N/A   Clear
8:54 AM 48.0 °F - 6.1 °F 18% 29.98 in 10.0 mi SW 10.4 mph - N/A   Clear
9:54 AM 51.1 °F - 3.9 °F 15% 30.06 in 10.0 mi SW 9.2 mph - N/A   Clear
10:54 AM 52.0 °F - 5.0 °F 15% 29.99 in 10.0 mi West 6.9 mph - N/A   Clear
11:54 AM 57.9 °F - 3.0 °F 11% 29.94 in 10.0 mi WSW 11.5 mph 17.3 mph N/A   Clear
12:54 PM 59.0 °F - 3.0 °F 11% 29.93 in 10.0 mi WSW 15.0 mph 21.9 mph N/A   Clear
1:54 PM 57.9 °F - 3.0 °F 11% 29.91 in 10.0 mi Variable 6.9 mph 24.2 mph N/A   Clear
2:54 PM 62.1 °F - 1.9 °F 9% 29.87 in 10.0 mi WSW 16.1 mph 29.9 mph N/A   Clear
3:54 PM 60.1 °F - 5.0 °F 11% 29.88 in 10.0 mi West 9.2 mph 18.4 mph N/A   Clear
4:54 PM 59.0 °F - 3.9 °F 11% 29.89 in 10.0 mi WSW 12.7 mph 19.6 mph N/A   Clear
5:54 PM 55.9 °F - 5.0 °F 13% 29.91 in 10.0 mi WSW 10.4 mph 18.4 mph N/A   Clear
6:54 PM 51.1 °F - 3.9 °F 15% 29.94 in 10.0 mi WSW 5.8 mph - N/A   Clear
7:54 PM 41.0 °F 38.0 °F 3.9 °F 21% 29.95 in 10.0 mi WSW 4.6 mph - N/A   Clear
8:54 PM 32.0 °F - 5.0 °F 32% 29.94 in 10.0 mi Calm Calm - N/A   Clear
9:54 PM 28.0 °F - 5.0 °F 38% 29.95 in 10.0 mi Calm Calm - N/A   Clear
10:54 PM 26.1 °F 21.9 °F 6.1 °F 43% 29.96 in 10.0 mi ENE 3.5 mph - N/A   Clear
11:54 PM 25.0 °F 20.7 °F 6.1 °F 45% 29.93 in 10.0 mi ENE 3.5 mph - N/A   Clear